N1OF Weather Reports


time (UTC)temp
C
wind
direction
speed
KPH
gust
KPH
rain 1hr
cm
rain 24hr
cm
rain mn
cm
humidity
%
barometer
mb
20260503233806 11 44 1.6 4.8 0.00 0.00 0.00 63 1013.0
20260503233301 11 234 0.0 12.9 0.00 0.00 0.00 62 1013.3
20260503232758 11 302 6.4 14.5 0.00 0.00 0.00 61 1013.1
20260503232255 11 153 3.2 9.7 0.00 0.00 0.00 60 1013.4
20260503231753 11 159 4.8 17.7 0.00 0.00 0.00 60 1013.2
20260503231250 11 290 6.4 16.1 0.00 0.00 0.00 61 1013.0
20260503230746 11 173 8.0 9.7 0.00 0.00 0.00 60 1013.2
20260503230244 12 263 8.0 20.9 0.00 0.00 0.00 59 1013.3
20260503225741 12 260 8.0 11.3 0.00 0.00 0.00 60 1013.3
20260503225241 12 222 3.2 4.8 0.00 0.00 0.00 60 1013.4
20260503224738 12 310 4.8 9.7 0.00 0.00 0.00 58 1013.4
20260503224236 12 93 4.8 20.9 0.00 0.00 0.00 59 1013.2
20260503223733 13 223 9.7 16.1 0.00 0.00 0.00 57 1013.4
20260503223231 13 199 3.2 16.1 0.00 0.00 0.00 56 1013.5
20260503222727 13 288 14.5 29.0 0.00 0.00 0.00 56 1013.4
20260503222225 13 287 9.7 16.1 0.00 0.00 0.00 58 1013.4
20260503221723 13 215 6.4 14.5 0.00 0.00 0.00 57 1013.3
20260503221221 14 196 12.9 29.0 0.00 0.00 0.00 54 1013.0
20260503220717 15 273 6.4 17.7 0.00 0.00 0.00 37 1013.1
20260503220214 15 170 14.5 20.9 0.00 0.00 0.00 38 1012.8
20260503215710 15 238 4.8 11.3 0.00 0.00 0.00 37 1012.9
20260503215208 16 166 9.7 17.7 0.00 0.00 0.00 36 1012.9
20260503214706 16 18 6.4 17.7 0.00 0.00 0.00 37 1012.8
20260503214202 16 155 9.7 16.1 0.00 0.00 0.00 36 1012.9
20260503213701 16 232 6.4 11.3 0.00 0.00 0.00 36 1013.0
20260503213157 16 140 12.9 22.5 0.00 0.00 0.00 36 1013.0
20260503212654 16 297 4.8 17.7 0.00 0.00 0.00 37 1013.0
20260503212152 16 211 8.0 12.9 0.00 0.00 0.00 37 1012.8
20260503211650 16 231 9.7 22.5 0.00 0.00 0.00 37 1012.8
20260503211144 16 239 6.4 11.3 0.00 0.00 0.00 37 1013.1
20260503210641 16 232 8.0 30.6 0.00 0.00 0.00 37 1013.1
20260503210138 16 311 6.4 16.1 0.00 0.00 0.00 36 1013.1
20260503205634 16 289 6.4 33.8 0.00 0.00 0.00 36 1013.1
20260503205130 16 245 9.7 12.9 0.00 0.00 0.00 36 1013.2
20260503204621 16 232 14.5 17.7 0.00 0.00 0.00 36 1013.3
20260503204119 16 232 6.4 17.7 0.00 0.00 0.00 36 1013.2
20260503203616 16 226 14.5 17.7 0.00 0.00 0.00 36 1013.4
20260503203113 16 274 6.4 29.0 0.00 0.00 0.00 35 1013.3
20260503202610 16 357 9.7 16.1 0.00 0.00 0.00 34 1013.5
20260503202108 16 236 9.7 22.5 0.00 0.00 0.00 34 1013.7
20260503201606 16 310 3.2 11.3 0.00 0.00 0.00 34 1013.3
20260503201103 16 253 14.5 22.5 0.00 0.00 0.00 33 1013.7
20260503200559 16 156 11.3 22.5 0.00 0.00 0.00 36 1013.6
20260503200056 16 61 11.3 27.4 0.00 0.00 0.00 35 1013.8
20260503195548 16 266 8.0 16.1 0.00 0.00 0.00 36 1013.8
20260503195044 16 174 8.0 17.7 0.00 0.00 0.00 35 1013.6
20260503194542 17 3 12.9 24.1 0.00 0.00 0.00 34 1013.8
20260503194041 17 261 9.7 20.9 0.00 0.00 0.00 34 1014.1
20260503193539 16 148 9.7 16.1 0.00 0.00 0.00 34 1013.9
20260503193039 16 253 12.9 24.1 0.00 0.00 0.00 34 1014.1
20260503192536 16 232 9.7 16.1 0.00 0.00 0.00 34 1014.1
20260503192031 16 239 12.9 24.1 0.00 0.00 0.00 35 1014.1
20260503191528 16 188 9.7 20.9 0.00 0.00 0.00 35 1014.3
20260503191025 16 266 8.0 22.5 0.00 0.00 0.00 34 1014.3
20260503190522 16 252 12.9 20.9 0.00 0.00 0.00 34 1014.4
20260503190019 16 222 6.4 16.1 0.00 0.00 0.00 35 1014.5
20260503185515 16 186 6.4 14.5 0.00 0.00 0.00 37 1014.5
20260503185015 16 283 8.0 35.4 0.00 0.00 0.00 36 1014.7
20260503184512 16 189 9.7 20.9 0.00 0.00 0.00 36 1014.8
20260503184008 16 302 4.8 16.1 0.00 0.00 0.00 35 1014.9
20260503183505 16 235 9.7 20.9 0.00 0.00 0.00 35 1014.8
20260503183001 16 177 4.8 12.9 0.00 0.00 0.00 34 1014.9
20260503182500 16 262 12.9 20.9 0.00 0.00 0.00 34 1015.1
20260503181958 16 296 11.3 16.1 0.00 0.00 0.00 36 1015.1
20260503181455 16 301 3.2 20.9 0.00 0.00 0.00 36 1015.1
20260503180950 16 219 9.7 22.5 0.00 0.00 0.00 36 1015.2
20260503180449 16 203 11.3 17.7 0.00 0.00 0.00 34 1015.1
20260503175945 16 301 8.0 16.1 0.00 0.00 0.00 34 1015.3
20260503175443 16 209 11.3 22.5 0.00 0.00 0.00 34 1015.3
20260503174939 16 197 9.7 14.5 0.00 0.00 0.00 34 1015.4
20260503174438 16 230 6.4 9.7 0.00 0.00 0.00 35 1015.3
20260503173938 16 314 9.7 24.1 0.00 0.00 0.00 34 1015.6
20260503173434 16 288 9.7 14.5 0.00 0.00 0.00 34 1015.7
20260503172931 16 224 9.7 20.9 0.00 0.00 0.00 32 1015.5
20260503172428 16 222 9.7 14.5 0.00 0.00 0.00 32 1015.7
20260503171924 16 291 9.7 33.8 0.00 0.00 0.00 33 1015.8
20260503171421 16 283 6.4 12.9 0.00 0.00 0.00 34 1015.9
20260503170919 16 260 6.4 12.9 0.00 0.00 0.00 33 1015.8
20260503170415 16 195 6.4 12.9 0.00 0.00 0.00 35 1015.9
20260503150807 13 264 1.6 12.9 0.00 0.00 0.00 46 1016.9
20260503150303 12 165 4.8 12.9 0.00 0.00 0.00 46 1016.8
20260503140228 11 179 9.7 14.5 0.00 0.00 0.00 50 1017.3
20260503131157 10 328 9.7 16.1 0.00 0.00 0.00 52 1017.4
20260503130654 9 191 3.2 9.7 0.00 0.00 0.00 53 1017.3
20260503130152 9 310 3.2 6.4 0.00 0.00 0.00 53 1017.6
20260503120123 6 303 4.8 9.7 0.00 0.00 0.00 60 1017.6
20260503110551 2 121 0.0 0.0 0.00 0.00 0.00 81 1017.1
20260503090438 0 158 0.0 0.0 0.00 0.00 0.00 88 1017.2
20260503081404 0 273 0.0 0.0 0.00 0.00 0.00 88 1017.2
20260503080901 0 284 0.0 0.0 0.00 0.00 0.00 88 1017.1
20260503080358 0 284 0.0 0.0 0.00 0.00 0.00 88 1017.2
20260503072834 0 284 0.0 0.0 0.00 0.00 0.00 87 1017.2
20260503072331 0 284 0.0 0.0 0.00 0.00 0.00 87 1017.3
20260503071827 0 284 0.0 0.0 0.00 0.00 0.00 87 1017.4
20260503071325 0 284 0.0 0.0 0.00 0.00 0.00 87 1017.3
20260503070821 0 284 0.0 0.0 0.00 0.00 0.00 87 1017.6
20260503070319 0 284 0.0 0.0 0.00 0.00 0.00 87 1017.6
20260503060244 1 287 0.0 0.0 0.00 0.00 0.00 84 1017.6
20260503054731 1 287 0.0 0.0 0.00 0.00 0.00 83 1017.7
20260503054228 1 287 0.0 0.0 0.00 0.00 0.00 83 1017.7
20260503053726 1 287 0.0 0.0 0.00 0.00 0.00 83 1017.6
20260503053225 1 304 0.0 0.0 0.00 0.00 0.00 81 1017.6
20260503052720 2 304 0.0 0.0 0.00 0.00 0.00 81 1017.6
20260503052217 2 262 0.0 0.0 0.00 0.00 0.00 81 1017.5
20260503051712 2 263 0.0 0.0 0.00 0.00 0.00 80 1017.9
20260503051210 2 264 0.0 0.0 0.00 0.00 0.00 80 1017.8
20260503050707 2 261 0.0 0.0 0.00 0.00 0.00 79 1017.9
20260503050203 2 261 0.0 0.0 0.00 0.00 0.00 78 1017.8
20260503045701 2 346 0.0 0.0 0.00 0.00 0.00 78 1017.7
20260503045158 2 276 0.0 0.0 0.00 0.00 0.00 78 1017.8
20260503044654 2 300 0.0 1.6 0.00 0.00 0.00 80 1017.8
20260503044152 2 76 0.0 0.0 0.00 0.00 0.00 79 1017.7
20260503043648 2 120 0.0 0.0 0.00 0.00 0.00 78 1017.7
20260503043146 2 120 0.0 0.0 0.00 0.00 0.00 78 1017.7
20260503042642 2 120 0.0 0.0 0.00 0.00 0.00 78 1017.8
20260503042138 2 140 0.0 0.0 0.00 0.00 0.00 77 1017.7
20260503041635 2 140 0.0 0.0 0.00 0.00 0.00 77 1017.7
20260503041133 2 140 0.0 0.0 0.00 0.00 0.00 77 1017.9
20260503040630 2 140 0.0 0.0 0.00 0.00 0.00 77 1017.7
20260503040127 3 140 0.0 0.0 0.00 0.00 0.00 76 1017.6
20260503035623 3 140 0.0 0.0 0.00 0.00 0.00 77 1017.8
20260503035121 3 140 0.0 0.0 0.00 0.00 0.00 76 1017.8
20260503034618 3 141 0.0 0.0 0.00 0.00 0.00 76 1017.7
20260503034116 3 141 0.0 0.0 0.00 0.00 0.00 76 1017.7
20260503033613 3 141 0.0 0.0 0.00 0.00 0.00 76 1017.8
20260503033110 3 141 0.0 0.0 0.00 0.00 0.00 76 1017.6
20260503032609 3 141 0.0 0.0 0.00 0.00 0.00 76 1017.7
20260503032107 3 141 0.0 0.0 0.00 0.00 0.00 76 1017.6
20260503031604 3 141 0.0 0.0 0.00 0.00 0.00 75 1018.0
20260503031101 3 141 0.0 0.0 0.00 0.00 0.00 75 1017.8
20260503030557 4 141 0.0 0.0 0.00 0.00 0.00 74 1017.8
20260503030054 4 141 0.0 0.0 0.00 0.00 0.00 74 1017.8
20260503025551 4 141 0.0 0.0 0.00 0.00 0.00 74 1017.9
20260503025049 4 141 0.0 0.0 0.00 0.00 0.00 74 1017.8
20260503024544 4 141 0.0 0.0 0.00 0.00 0.00 74 1017.9
20260503024042 4 141 0.0 0.0 0.00 0.00 0.00 73 1017.9
20260503023538 5 141 0.0 0.0 0.00 0.00 0.00 73 1018.1
20260503023036 5 141 0.0 0.0 0.00 0.00 0.00 72 1018.1
20260503022532 5 141 0.0 0.0 0.00 0.00 0.00 71 1018.1
20260503022027 5 141 0.0 0.0 0.00 0.00 0.00 72 1018.1
20260503021524 5 141 0.0 0.0 0.00 0.00 0.00 71 1017.9
20260503021021 5 141 0.0 0.0 0.00 0.00 0.00 71 1017.9
20260503020518 5 141 0.0 0.0 0.00 0.00 0.00 70 1017.8
20260503020015 5 141 0.0 0.0 0.00 0.00 0.00 69 1017.9
20260503015511 5 141 0.0 0.0 0.00 0.00 0.00 69 1017.9
20260503015008 5 141 0.0 0.0 0.00 0.00 0.00 68 1017.8
20260503014504 5 142 0.0 0.0 0.00 0.00 0.00 67 1017.9
20260503014003 5 142 0.0 0.0 0.00 0.00 0.00 65 1017.6
20260503013459 6 142 0.0 0.0 0.00 0.00 0.00 64 1017.9
20260503012956 6 142 0.0 0.0 0.00 0.00 0.00 62 1017.7
20260503012455 6 142 0.0 0.0 0.00 0.00 0.00 64 1017.6
20260503011950 6 142 0.0 0.0 0.00 0.00 0.00 64 1017.7
20260503011447 6 161 0.0 0.0 0.00 0.00 0.00 61 1017.9
20260503010944 6 161 0.0 0.0 0.00 0.00 0.00 59 1017.8
20260503010441 6 161 0.0 0.0 0.00 0.00 0.00 57 1017.8
20260503005938 6 161 0.0 0.0 0.00 0.00 0.00 57 1017.6
20260503005436 6 161 0.0 0.0 0.00 0.00 0.00 56 1017.6
20260503004932 6 190 0.0 0.0 0.00 0.00 0.00 55 1017.8
20260503004429 7 198 0.0 0.0 0.00 0.00 0.00 54 1017.8
20260503003927 7 251 0.0 0.0 0.00 0.00 0.00 51 1017.7
20260503003423 7 186 1.6 1.6 0.00 0.00 0.00 50 1017.8
20260503002921 7 208 0.0 1.6 0.00 0.00 0.00 49 1017.7
20260503002418 7 181 1.6 1.6 0.00 0.00 0.00 48 1017.7
20260503001914 7 327 0.0 1.6 0.00 0.00 0.00 46 1017.6
20260503001410 8 330 0.0 1.6 0.00 0.00 0.00 46 1017.5
20260503000908 8 319 1.6 3.2 0.00 0.00 0.00 46 1017.4
20260503000407 8 344 4.8 4.8 0.00 0.00 0.00 45 1017.4
20260502235902 8 296 3.2 4.8 0.00 0.00 0.00 44 1017.6
20260502235359 8 319 1.6 1.6 0.00 0.00 0.00 46 1017.5
20260502234856 8 275 3.2 6.4 0.00 0.00 0.00 44 1017.4
20260502234353 8 280 3.2 4.8 0.00 0.00 0.00 45 1017.6
20260502233849 8 40 0.0 0.0 0.00 0.00 0.00 48 1017.5